Chamberlain, SD

7:35 AM CST on February 26, 2017 (GMT -0600)
Chamberlain

Weather History for K9V9 - June, 2013

Change the Weather History Date:

Sunday, June 30, 2013

  Actual Average Record
Temperature  
Mean Temperature 68 °F -  
Max Temperature 79 °F 82 °F 102 °F (2006)
Min Temperature 57 °F 58 °F 50 °F (2000)
Cooling Degree Days 3    
Growing Degree Days 18 (Base 50)    
Moisture  
Dew Point 57 °F    
Average Humidity 67    
Maximum Humidity 90    
Minimum Humidity 47    
Precipitation  
Precipitation 0.00 in - - ()
Sea Level Pressure  
Sea Level Pressure 30.11 in    
Wind  
Wind Speed 5 mph (NE)    
Max Wind Speed 12 mph    
Max Gust Speed -    
Averages and records for this station are not official NWS values.
T = Trace of Precipitation, MM = Missing Value Source: NWS Daily Summary

Daily Weather History Graph

Daily Weather History Graph

Search for Another Location

Airport or City:

Trip Planner

Search our weather history database for the weather conditions in past years. The results will help you decide how hot, cold, wet, or windy it might be!

Date:

Astronomy

Jun. 30, 2013 Rise Set
Actual Time 5:58 AM CDT 9:23 PM CDT
Civil Twilight 5:22 AM CDT 9:59 PM CDT
Nautical Twilight 4:35 AM CDT 10:46 PM CDT
Astronomical Twilight 3:36 AM CDT 11:44 PM CDT
Moon 1:08 AM CDT (6/30) 2:31 PM CDT (6/30)
Length of Visible Light 16h 36m
Length of Day
15h 24m
Last Quarter, 45% of the Moon is Illuminated
Jun 30
Last Quarter
Jul 8
New
Jul 15
First Quarter
Jul 22
Full
Jul 29
Last Quarter

Hourly Weather History & Observations

Time (CDT) Temp. Dew Point Humidity Pressure Visibility Wind Dir Wind Speed Gust Speed Precip Events Conditions
12:52 AM 63.0 °F 55.0 °F 75% 30.05 in - North 4.6 mph - N/A   Unknown
1:52 AM 60.1 °F 55.0 °F 83% 30.06 in - West 6.9 mph - N/A   Unknown
2:52 AM 61.0 °F 55.0 °F 81% 30.06 in - Calm Calm - N/A   Unknown
3:52 AM 60.1 °F 55.9 °F 86% 30.06 in - Calm Calm - N/A   Unknown
4:52 AM 57.9 °F 55.0 °F 90% 30.07 in - WNW 6.9 mph - N/A   Unknown
5:52 AM 59.0 °F 55.0 °F 87% 30.08 in - West 5.8 mph - N/A   Unknown
6:52 AM 59.0 °F 55.0 °F 87% 30.10 in - West 3.5 mph - N/A   Unknown
7:52 AM 66.0 °F 59.0 °F 78% 30.10 in - NW 3.5 mph - N/A   Unknown
8:52 AM 71.1 °F 59.0 °F 66% 30.12 in - NNW 5.8 mph - N/A   Unknown
9:52 AM 73.9 °F 61.0 °F 64% 30.13 in - North 6.9 mph - N/A   Unknown
10:52 AM 77.0 °F 57.9 °F 52% 30.12 in - NNW 6.9 mph - N/A   Unknown
11:52 AM 75.0 °F 55.9 °F 51% 30.12 in - North 9.2 mph - N/A   Unknown
12:52 PM 79.0 °F 60.1 °F 52% 30.12 in - NE 8.1 mph - N/A   Unknown
1:52 PM 75.9 °F 59.0 °F 56% 30.13 in - East 10.4 mph - N/A   Unknown
2:52 PM 75.0 °F 63.0 °F 66% 30.13 in - ESE 8.1 mph - N/A   Unknown
3:52 PM 75.9 °F 61.0 °F 60% 30.12 in - SE 6.9 mph - N/A   Unknown
4:52 PM 75.0 °F 60.1 °F 60% 30.13 in - SE 5.8 mph - N/A   Unknown
5:52 PM 78.1 °F 59.0 °F 52% 30.12 in - ESE 5.8 mph - N/A   Unknown
6:52 PM 77.0 °F 55.0 °F 47% 30.12 in - East 11.5 mph - N/A   Unknown
7:52 PM 73.0 °F 55.0 °F 53% 30.12 in - East 4.6 mph - N/A   Unknown
8:52 PM 69.1 °F 55.0 °F 61% 30.13 in - East 8.1 mph - N/A   Unknown
9:52 PM 66.0 °F 54.0 °F 65% 30.14 in - East 3.5 mph - N/A   Unknown
10:52 PM 64.0 °F 54.0 °F 70% 30.16 in - East 5.8 mph - N/A   Unknown
11:52 PM 62.1 °F 54.0 °F 75% 30.17 in - Calm Calm - N/A   Unknown